8035 (1992 TB) |
Classification: Apollo [NEO] SPK-ID: 2008035 |
[ hide orbit diagram ]
For accurate long-term ephemerides, please instead use our Horizons system.This orbit viewer was implemented using two-body methods, and hence should not be used for determining accurate long-term trajectories (over several years or decades) or planetary encounter circumstances.
[ revert to old Java-based viewer ]
Orbital Elements at Epoch 2458600.5 (2019-Apr-27.0) TDB
Reference: JPL 126 (heliocentric ecliptic J2000)
Element | Value | Uncertainty (1-sigma) | Units |
e | .462344258101294 | 7.475e-08 | |
a | 1.342034367265981 | 3.6183e-09 | au |
q | .7215524833859516 | 1.0063e-07 | au |
i | 28.30490017249672 | 1.0703e-05 | deg |
node | 185.6398552093895 | 9.7703e-06 | deg |
peri | 6.064913077377418 | 1.2439e-05 | deg |
M | 185.886558745514 | 1.5155e-05 | deg |
tp | 2458875.146255072149 (2020-Jan-26.64625507) | 2.3836e-05 | TDB |
period | 567.8634062574203 1.55 | 2.2966e-06 6.288e-09 | d yr |
n | .6339552716957555 | 2.5638e-09 | deg/d |
Q | 1.962516251146011 | 5.2912e-09 | au |
|
| | Orbit Determination Parameters
Additional Information
|
[ show covariance matrix ]
Physical Parameter Table
Parameter |
Symbol |
Value |
Units |
Sigma |
Reference |
Notes |
absolute magnitude |
H |
17.1 |
|
n/a |
MPO319186 |
|
|
8035 (1992 TB) Discovered 1992-Oct-02 by Spacewatch at Kitt Peak |
Reference: DISCOVERY.DB | Last Updated: 2003-08-29 |
|
[ show close-approach data ]
|